User: anonymous   Login
Location: Umburanas
(4.5000°S, 37.9667°W)
Time: 08:09:39
(UTC+00:00)
Language:

ARIANE 5 DEB (SYLDA) - Orbit

View from above orbital plane
View from above orbital plane
View from above satellite
View from above satellite

Ground track
Ground track

The orbit data is extracted from the following two-line orbital elements,

1 39081U 13006D   20025.44850309 +.00002226 +00000-0 +83129-3 0  9991
2 39081 006.1427 306.6905 6434446 112.1370 325.2694 03.38265783073903
Epoch (UTC): 25 January 2020 10:45:50
Eccentricity: 0.6434446
inclination: 6.1427°
perigee height: 305 km
apogee height: 24429 km
right ascension of ascending node: 306.6905°
argument of perigee: 112.1370°
revolutions per day: 3.38265783
mean anomaly at epoch: 325.2694°
orbit number at epoch: 7390

The dashed part of the orbit path shows where the satellite is in the earth's shadow,  

DLR